Location: Krakow
(50.0212°N, 19.9423°E)
Time: 13:00:26
(UTC+02:00)

NOAA 18 - Pass Details

Date: 29 April 2025
Orbit: 837 x 857 km, 98.8° (Epoch: 14 May)

Event Time Altitude Azimuth Distance (km) Brightness Sun altitude
Exits shadow 22:39:28 39° 159° (SSE) 1,270 5.6 -20.2°
Maximum altitude 22:41:40 86° 74° (ENE) 867 5.2 -20.4°
Drops below altitude 10° 22:47:15 10° 346° (NNW) 2,503 8.8 -20.8°
Sets 22:49:38 0° 346° (NNW) 3,443 9.8 -21.0°
